When you browse on this site, cookies collect data to enhance your experience and personalize the content and advertising you see.
Visit our Privacy Policy to learn more. By continuing to use the site, you agree to this use of cookies and data.
  • In Hungary
  • List of Countries
  • For 7 days
  • Water Temperature
  • Satellite Maps
  • Weather Map
  • News
  • Weather Widgets
  • user-avatar
    Login

    Hourly Weather Springville

    Today, 18 November, Sunday

    Time Temperature Precipitation Wind Pressure Humidity
    00:00 +1°C° 0 mm 1 mps 641 mmHg 88%
    01:00 +1°C° 0 mm 1 mps 641 mmHg 88%
    02:00 -1°C° 0 mm 0 mps 641 mmHg 87%
    03:00 -1°C° 0 mm 0 mps 641 mmHg 86%
    04:00 0°C° 0 mm 1 mps 641 mmHg 84%
    05:00 -2°C° 0 mm 0 mps 641 mmHg 81%
    06:00 -1°C° 0 mm 1 mps 641 mmHg 78%
    07:00 -1°C° 0 mm 1 mps 641 mmHg 74%
    08:00 0°C° 0 mm 1 mps 641 mmHg 71%
    09:00 +2°C° 0 mm 1 mps 641 mmHg 60%
    10:00 +4°C° 0 mm 1 mps 642 mmHg 50%
    11:00 +6°C° 0 mm 1 mps 642 mmHg 39%
    12:00 +7°C° 0 mm 1 mps 641 mmHg 36%
    13:00 +7°C° 0 mm 1 mps 641 mmHg 34%
    14:00 +7°C° 0 mm 2 mps 641 mmHg 31%
    15:00 +7°C° 0 mm 1 mps 640 mmHg 36%
    16:00 +5°C° 0 mm 1 mps 639 mmHg 42%
    17:00 +3°C° 0 mm 1 mps 639 mmHg 47%
    18:00 +3°C° 0 mm 1 mps 639 mmHg 50%
    19:00 +2°C° 0 mm 1 mps 639 mmHg 53%
    20:00 +1°C° 0 mm 1 mps 639 mmHg 56%
    21:00 +1°C° 0 mm 1 mps 639 mmHg 55%
    22:00 +1°C° 0 mm 1 mps 639 mmHg 54%
    23:00 0°C° 0 mm 1 mps 639 mmHg 53%

    Tomorrow, 19 November, Monday

    Time Temperature Precipitation Wind Pressure Humidity
    00:00 0°C° 0 mm 1 mps 639 mmHg 51%
    01:00 0°C° 0 mm 1 mps 639 mmHg 49%
    02:00 0°C° 0 mm 1 mps 639 mmHg 47%
    03:00 0°C° 0 mm 1 mps 639 mmHg 45%
    04:00 0°C° 0 mm 1 mps 639 mmHg 44%
    05:00 0°C° 0 mm 1 mps 639 mmHg 43%
    06:00 0°C° 0 mm 1 mps 639 mmHg 40%
    07:00 0°C° 0 mm 1 mps 639 mmHg 38%
    08:00 +1°C° 0 mm 1 mps 640 mmHg 35%
    09:00 +3°C° 0 mm 1 mps 640 mmHg 30%
    10:00 +6°C° 0 mm 1 mps 641 mmHg 24%
    11:00 +9°C° 0 mm 1 mps 642 mmHg 19%
    12:00 +9°C° 0 mm 1 mps 642 mmHg 18%
    13:00 +10°C° 0 mm 1 mps 641 mmHg 17%
    14:00 +11°C° 0 mm 1 mps 641 mmHg 16%
    15:00 +9°C° 0 mm 1 mps 640 mmHg 21%
    16:00 +7°C° 0 mm 1 mps 639 mmHg 25%
    17:00 +5°C° 0 mm 1 mps 638 mmHg 30%
    18:00 +4°C° 0 mm 1 mps 638 mmHg 30%
    19:00 +3°C° 0 mm 1 mps 639 mmHg 31%
    20:00 +3°C° 0 mm 1 mps 639 mmHg 31%
    21:00 +3°C° 0 mm 1 mps 639 mmHg 31%
    22:00 +2°C° 0 mm 1 mps 639 mmHg 30%
    23:00 +2°C° 0 mm 1 mps 639 mmHg 30%

    Day after tomorrow, 20 November, Tuesday

    Time Temperature Precipitation Wind Pressure Humidity
    00:00 +2°C° 0 mm 1 mps 638 mmHg 28%
    01:00 +2°C° 0 mm 1 mps 638 mmHg 27%
    02:00 +2°C° 0 mm 1 mps 638 mmHg 26%
    03:00 +2°C° 0 mm 1 mps 638 mmHg 25%
    04:00 +2°C° 0 mm 1 mps 638 mmHg 24%
    05:00 +1°C° 0 mm 1 mps 637 mmHg 23%
    06:00 +2°C° 0 mm 1 mps 638 mmHg 22%
    07:00 +2°C° 0 mm 1 mps 638 mmHg 21%
    08:00 +2°C° 0 mm 1 mps 638 mmHg 21%
    09:00 +5°C° 0 mm 1 mps 639 mmHg 18%
    10:00 +8°C° 0 mm 1 mps 640 mmHg 15%
    11:00 +11°C° 0 mm 1 mps 641 mmHg 12%
    12:00 +12°C° 0 mm 1 mps 640 mmHg 11%
    13:00 +12°C° 0 mm 1 mps 640 mmHg 11%
    14:00 +13°C° 0 mm 1 mps 640 mmHg 10%
    15:00 +11°C° 0 mm 1 mps 639 mmHg 14%
    16:00 +8°C° 0 mm 1 mps 638 mmHg 18%
    17:00 +5°C° 0 mm 0 mps 637 mmHg 22%
    18:00 +5°C° 0 mm 1 mps 637 mmHg 23%
    19:00 +4°C° 0 mm 1 mps 637 mmHg 24%
    20:00 +4°C° 0 mm 1 mps 637 mmHg 25%
    21:00 +3°C° 0 mm 1 mps 637 mmHg 26%
    22:00 +3°C° 0 mm 1 mps 637 mmHg 27%
    23:00 +2°C° 0 mm 2 mps 637 mmHg 28%

    21 November, Wednesday

    Time Temperature Precipitation Wind Pressure Humidity
    00:00 +2°C° 0 mm 2 mps 637 mmHg 28%
    01:00 +2°C° 0 mm 2 mps 637 mmHg 28%
    02:00 +2°C° 0 mm 2 mps 637 mmHg 28%
    03:00 +2°C° 0 mm 2 mps 637 mmHg 27%
    04:00 +2°C° 0 mm 2 mps 637 mmHg 26%
    05:00 +2°C° 0 mm 2 mps 637 mmHg 25%
    06:00 +2°C° 0 mm 2 mps 637 mmHg 23%
    07:00 +2°C° 0 mm 2 mps 638 mmHg 22%
    08:00 +3°C° 0 mm 2 mps 638 mmHg 20%
    09:00 +6°C° 0 mm 2 mps 639 mmHg 19%
    10:00 +9°C° 0 mm 2 mps 640 mmHg 17%
    11:00 +12°C° 0 mm 2 mps 640 mmHg 15%
    12:00 +13°C° 0 mm 2 mps 640 mmHg 16%
    13:00 +14°C° 0 mm 2 mps 639 mmHg 18%
    14:00 +13°C° 0 mm 3 mps 639 mmHg 19%
    15:00 +12°C° 0 mm 2 mps 638 mmHg 23%
    16:00 +9°C° 0 mm 2 mps 637 mmHg 28%
    17:00 +8°C° 0 mm 1 mps 636 mmHg 32%
    18:00 +7°C° 0 mm 2 mps 636 mmHg 33%
    19:00 +6°C° 0 mm 2 mps 636 mmHg 33%
    20:00 +6°C° 0 mm 2 mps 636 mmHg 34%
    21:00 +6°C° 0 mm 2 mps 636 mmHg 34%
    22:00 +5°C° 0 mm 3 mps 636 mmHg 33%
    23:00 +5°C° 0 mm 3 mps 636 mmHg 33%

    22 November, Thursday

    Time Temperature Precipitation Wind Pressure Humidity
    00:00 +4°C° 0 mm 3 mps 635 mmHg 34%
    01:00 +4°C° 0 mm 3 mps 635 mmHg 34%
    02:00 +5°C° 0 mm 2 mps 635 mmHg 35%
    03:00 +5°C° 0 mm 2 mps 634 mmHg 36%
    04:00 +5°C° 0 mm 2 mps 634 mmHg 38%
    05:00 +5°C° 0 mm 2 mps 634 mmHg 39%
    06:00 +4°C° 0.7 mm 3 mps 634 mmHg 51%
    07:00 +3°C° 0.7 mm 3 mps 634 mmHg 63%
    08:00 +3°C° 0.7 mm 3 mps 634 mmHg 75%
    09:00 +3°C° 0.9 mm 3 mps 634 mmHg 78%
    10:00 +3°C° 0.9 mm 3 mps 635 mmHg 80%
    11:00 +3°C° 0.9 mm 3 mps 635 mmHg 83%
    12:00 +4°C° 0.3 mm 3 mps 635 mmHg 80%
    13:00 +4°C° 0.3 mm 3 mps 634 mmHg 77%
    14:00 +5°C° 0.3 mm 3 mps 634 mmHg 75%
    15:00 +4°C° 0.3 mm 3 mps 635 mmHg 77%
    16:00 +4°C° 0.3 mm 2 mps 635 mmHg 80%
    17:00 +4°C° 0.3 mm 2 mps 635 mmHg 82%
    18:00 +3°C° 0.1 mm 2 mps 635 mmHg 84%
    19:00 +2°C° 0.1 mm 2 mps 635 mmHg 85%
    20:00 0°C° 0.1 mm 3 mps 636 mmHg 87%
    21:00 0°C° 0 mm 3 mps 636 mmHg 87%
    22:00 0°C° 0 mm 3 mps 636 mmHg 87%
    23:00 -1°C° 0 mm 3 mps 636 mmHg 87%

    23 November, Friday

    Time Temperature Precipitation Wind Pressure Humidity
    00:00 -1°C° 0.1 mm 3 mps 636 mmHg 86%
    01:00 -1°C° 0.1 mm 3 mps 636 mmHg 85%
    02:00 -1°C° 0.1 mm 3 mps 636 mmHg 84%
    03:00 0°C° 0.3 mm 3 mps 636 mmHg 84%
    04:00 0°C° 0.3 mm 3 mps 636 mmHg 84%
    05:00 0°C° 0.3 mm 3 mps 636 mmHg 84%
    06:00 0°C° 0.6 mm 3 mps 636 mmHg 84%
    07:00 +1°C° 0.6 mm 3 mps 636 mmHg 84%
    08:00 +1°C° 0.6 mm 3 mps 636 mmHg 84%
    09:00 +1°C° 0.7 mm 3 mps 636 mmHg 84%
    10:00 +2°C° 0.7 mm 3 mps 636 mmHg 84%
    11:00 +1°C° 0.7 mm 4 mps 636 mmHg 84%
    12:00 +3°C° 0.7 mm 4 mps 635 mmHg 84%
    13:00 +3°C° 0.7 mm 4 mps 635 mmHg 83%
    14:00 +3°C° 0.7 mm 4 mps 634 mmHg 83%
    15:00 +3°C° 0.5 mm 3 mps 634 mmHg 85%
    16:00 +3°C° 0.5 mm 3 mps 634 mmHg 87%
    17:00 +3°C° 0.5 mm 3 mps 634 mmHg 88%
    18:00 +2°C° 0.3 mm 3 mps 634 mmHg 89%
    19:00 +2°C° 0.3 mm 3 mps 634 mmHg 89%
    20:00 +2°C° 0.3 mm 3 mps 634 mmHg 89%
    21:00 +2°C° 1.2 mm 3 mps 633 mmHg 89%
    22:00 +3°C° 1.2 mm 2 mps 633 mmHg 89%
    23:00 +3°C° 1.2 mm 2 mps 633 mmHg 89%
    Show more